Location: Unspecified
(0.0000°N, 0.0000°E)
Time: 07:45:13
(UTC+00:00)

deb Delta 104 - Pass Details

Date: 07 March 2026
Orbit: 1402 x 1485 km, 102.0° (Epoch: 18 April)

Event Time Altitude Azimuth Distance (km) Brightness Sun altitude
Rises 04:59:59 0° 49° (NE) 4,572 ? -17.7°
Reaches altitude 10° 05:03:52 10° 66° (ENE) 3,583 ? -16.7°
Maximum altitude 05:09:19 19° 107° (ESE) 2,912 ? -15.4°
Drops below altitude 10° 05:14:41 10° 148° (SSE) 3,549 ? -14.0°
Sets 05:18:27 0° 165° (SSE) 4,515 ? -13.1°
